Regional Weather Roundup
Issued by NWS Green Bay, WI

Home | Current Version | Previous Version | Text Only | Print | Product List | Glossary On
Versions: 1 2 3 4 5 6 7 8 9 10 11 12 13 14 15 16 17 18 19 20 21 22 23 24 25 26 27 28 29 30 31 32 33 34 35 36 37 38 39 40 41 42 43 44 45 46 47 48 49 50
098
ASUS43 KGRB 050700
RWRGRB

NORTH-CENTRAL AND NORTHEAST WISCONSIN REGIONAL WEATHER ROUNDUP
NATIONAL WEATHER SERVICE GREEN BAY WI
200 AM CDT THU MAY 05 2016

WIZ005-009-010>012-018-019-050800-
NORTH CENTRAL WISCONSIN

CITY           SKY/WX    TMP DP  RH WIND       PRES   REMARKS
IRONWOOD         N/A     30  28  93 CALM      29.98S
MANITOWISH WTR NOT AVBL
ARBOR VITAE    NOT AVBL
EAGLE RIVER    NOT AVBL
LAND O LAKES   NOT AVBL
RHINELANDER    CLEAR     34  30  85 CALM      29.99S
PHILLIPS       NOT AVBL
ANTIGO         NOT AVBL
TOMAHAWK       NOT AVBL
MERRILL        NOT AVBL
$$

WIZ013-073-050800-
NORTHEAST WISCONSIN

CITY           SKY/WX    TMP DP  RH WIND       PRES   REMARKS
IRON MOUNTAIN  CLEAR     30  27  88 CALM      29.97S
MARINETTE      CLEAR     36  30  80 N6        29.98S
$$

WIZ017-030-035>037-045-050800-
CENTRAL WISCONSIN

CITY           SKY/WX    TMP DP  RH WIND       PRES   REMARKS
MEDFORD        NOT AVBL
WAUSAU         CLEAR     41  32  70 CALM      29.97R
MOSINEE        NOT AVBL
MARSHFIELD     CLEAR     42  31  64 N6        29.97S
WISC RAPIDS    CLEAR     38  30  73 N5        30.00R
STEVENS POINT  NOT AVBL
WAUPACA        NOT AVBL
SHAWANO        NOT AVBL
CLINTONVILLE   NOT AVBL
WAUTOMA        CLEAR     39  32  76 N5        29.98S
$$

WIZ038-039-048-051-050800-
FOX VALLEY

CITY           SKY/WX    TMP DP  RH WIND       PRES   REMARKS
NWS GREEN BAY  CLEAR     37  31  78 N9        29.97S
APPLETON       NOT AVBL
OSHKOSH        CLEAR     40  31  70 N12       29.96S
FOND DU LAC    CLEAR     41  32  70 N14       29.96S
$$

WIZ022-050-052-050800-
EAST CENTRAL WISCONSIN

CITY           SKY/WX    TMP DP  RH WIND       PRES   REMARKS
EPHRAIM        NOT AVBL
STURGEON BAY   CLEAR     37  30  75 N12G18    29.98S
MANITOWOC      NOT AVBL
SHEBOYGAN      PTCLDY    39  31  72 N8        29.94F
$$

LMZ563-521-522-541>543-050800-
LAKESHORE

STATION/POSITION TIME  TEMP    WIND        PRES    VSBY  WAVE
                       AIR SEA DIR/SP/G                  HT/PER
                 (UTC) (F)     (DEG/KT/KT) (MB)    (MI)  (FT/S)
SHEBOYGAN LKSHOR 0600   42      10/ 20/ 22 1014.5R
KEWAUNEE LKSHORE 0600   39     340/  6/ 11 1013.7R
ALGOMA MARINA    0600          330/ 10/ 13   N/A
NORTHPORT PIER   0622   40     340/ 14/ 18 1014.6R
N MID LAKE BUOY  0550   38 38  340/ 14/ 17 1013.7R         3/ 5
CHAMBERS ISLAND  0600   40     330/ 14/ 17 1014.6S
MENOMINEE LKSHOR 0600   40     330/ 11/ 13 1013.7R
$$




USA.gov is the U.S. government's official web portal to all federal, state and local government web resources and services.